Location: Cabo di Oristano
(39.8500°N, 8.4333°E)
Time: 16:48:59
(UTC+00:00)

Cosmos 2360 Rocket - Pass Details

Date: 31 January 2023
Orbit: 832 x 846 km, 71.0° (Epoch: 30 March)

Event Time Altitude Azimuth Distance (km) Brightness Sun altitude
Exits shadow 04:03:00 30° 5° (N) 1,477 3.4 -29.5°
Maximum altitude 04:05:30 49° 62° (ENE) 1,076 3.0 -29.0°
Drops below altitude 10° 04:10:58 10° 137° (SE) 2,461 5.1 -27.9°
Sets 04:13:29 0° 143° (SE) 3,392 5.8 -27.5°
